Theta_e
310 310 310 310 309 309 309 309 309 308 308 308 309 310 311 311 310 315 316 315 313 313 314 315 316 317 318 321 320 320 322 321 321 320 318 320 318 319 318 318 318 319 319 319 318
310 310 309 310 309 309 309 309 310 310 309 308 307 306 307 309 313 316 316 311 311 313 316 316 318 318 320 321 321 321 322 320 320 319 318 317 317 317 317 318 317 318 319 318 317
309 309 310 312 312 313 312 313 314 313 312 310 308 307 305 307 318 315 314 311 312 313 315 316 316 318 319 320 321 321 320 318 319 318 317 316 316 317 317 317 317 317 318 318 318
310 311 314 316 316 317 316 317 318 317 316 315 312 308 305 313 316 312 314 314 312 314 314 315 317 318 318 319 319 321 318 319 319 318 318 318 317 317 317 317 318 318 317 317 317
313 313 316 317 319 318 319 320 319 319 318 317 315 309 310 314 313 311 311 313 312 313 315 316 316 317 318 317 318 319 318 318 318 318 318 317 317 318 317 317 317 317 317 317 317
314 315 317 319 320 320 321 320 320 320 318 317 314 309 314 316 311 309 312 313 314 314 315 315 316 316 317 316 316 317 317 317 316 316 316 316 317 316 316 317 316 316 316 316 316
315 316 318 320 320 321 321 321 320 319 318 316 312 308 312 316 313 313 313 315 314 314 315 315 315 316 317 317 317 316 316 316 316 316 316 315 315 316 316 316 315 315 316 316 316
315 317 319 320 321 321 321 321 320 318 315 312 309 313 315 309 312 310 312 312 313 312 313 312 313 315 316 316 316 315 315 316 316 315 315 314 316 317 316 314 315 316 316 317 316
316 318 319 321 321 321 321 320 317 312 311 308 312 313 316 308 311 311 311 312 312 312 311 311 314 315 315 315 315 317 317 318 318 316 314 315 317 317 316 315 315 315 315 315 315
317 318 320 321 321 321 321 317 311 311 314 311 312 311 311 312 311 310 309 311 312 312 313 313 314 314 314 315 317 320 321 321 320 319 316 316 317 316 315 315 315 316 316 316 315
318 319 320 320 321 321 320 313 317 318 312 318 317 315 313 311 310 311 309 310 312 313 314 314 315 316 317 317 317 318 317 317 318 318 317 317 315 315 315 316 316 316 316 316 315
319 320 320 321 322 322 317 317 312 310 320 319 316 313 310 310 314 311 309 312 313 315 314 314 316 317 317 314 315 316 316 317 317 317 313 315 315 315 316 317 316 316 315 315 315
319 320 320 322 322 322 316 313 309 309 319 321 313 313 311 310 317 317 311 313 314 317 316 318 319 315 315 316 316 317 317 317 316 315 314 315 317 319 317 317 316 314 314 314 313
320 320 321 323 322 321 318 316 311 309 325 323 314 311 310 310 312 309 309 313 315 317 318 318 316 315 315 314 315 316 313 313 314 315 318 314 317 317 318 318 316 315 315 313 311
321 321 320 322 322 322 316 316 310 310 332 314 310 310 310 310 311 310 307 311 315 315 314 317 312 313 314 314 313 315 311 312 313 314 315 316 316 318 316 316 315 315 313 311 309
323 323 322 321 321 321 317 311 310 325 333 316 311 312 312 310 310 310 310 310 310 312 312 313 309 311 313 312 311 311 312 315 315 315 318 318 318 318 317 315 315 312 310 308 307
320 321 321 320 321 321 315 313 326 331 321 316 312 315 313 315 311 312 313 313 316 318 318 316 314 313 311 314 312 311 314 320 322 323 323 318 318 318 317 316 313 311 310 308 307
320 319 319 320 320 319 314 323 326 325 325 318 314 318 321 318 319 315 316 318 315 315 318 320 321 316 312 314 316 315 317 320 326 324 325 320 320 319 317 311 311 311 310 308 306
318 318 318 319 319 317 320 326 323 321 322 325 321 324 324 322 320 320 320 320 318 316 317 316 316 313 311 313 313 316 316 316 317 319 322 317 316 317 317 312 311 310 308 306 303
313 314 315 317 319 317 321 322 321 319 319 321 326 321 321 321 320 318 317 315 314 313 313 314 315 314 313 310 311 312 311 316 315 317 320 315 316 316 315 313 310 308 305 303 302
307 311 309 314 315 318 320 321 319 317 317 320 321 321 320 319 318 317 317 315 313 313 311 312 314 314 314 314 314 312 312 311 312 315 318 319 315 313 311 307 306 304 302 300 299
308 312 307 314 318 318 319 318 314 316 314 317 317 317 319 318 318 317 314 313 312 314 315 315 317 318 316 313 313 314 314 313 315 317 315 316 316 314 312 304 302 301 300 299 298
309 310 308 312 319 319 315 313 314 315 315 315 315 314 312 311 312 311 311 312 312 315 315 315 316 318 316 313 314 314 314 314 315 315 318 319 316 313 311 307 300 299 297 297 297
307 309 309 310 313 313 313 313 313 311 311 311 311 310 311 311 311 311 310 312 309 308 304 310 314 315 315 314 312 312 312 312 314 314 314 314 313 309 307 304 298 295 294 294 293
306 308 307 310 311 312 311 310 310 311 311 310 310 310 309 310 309 309 309 309 306 302 303 307 313 313 311 310 308 307 307 307 307 307 308 307 306 304 303 297 294 293 292 292 292
304 302 302 305 307 310 310 310 310 309 308 309 309 309 310 311 310 310 307 306 307 302 303 301 307 304 303 304 304 303 303 303 302 301 301 302 302 300 294 293 293 292 291 291 291
296 297 300 302 304 307 309 308 306 306 301 302 304 305 304 304 301 300 300 300 302 302 301 301 302 302 303 301 297 299 299 299 299 298 297 296 298 294 293 292 291 291 291 291 291
Wind_Speed
5 5 5 5 5 6 6 7 7 7 8 9 10 11 12 14 16 7 8 5 5 10 9 8 7 5 5 3 3 2 5 8 9 6 2 5 8 3 2 10 9 9 12 7 2
5 6 5 5 6 7 8 9 9 9 9 9 9 11 12 15 12 13 9 8 7 12 10 11 8 8 5 3 3 6 8 9 5 7 8 10 9 12 12 13 15 15 17 16 10
6 5 4 4 6 7 8 10 11 11 12 11 10 9 10 12 7 1 2 5 7 13 6 9 6 7 8 5 7 5 9 8 9 9 10 10 14 13 12 16 15 12 9 11 12
5 4 4 5 6 8 10 11 13 13 13 13 11 9 7 3 7 1 2 4 9 11 7 6 6 6 7 9 7 9 14 12 10 6 6 11 12 13 15 24 19 19 17 15 16
5 4 5 6 7 8 10 13 14 14 15 14 12 8 3 6 7 4 3 4 10 9 11 9 10 9 10 7 7 14 14 10 11 10 15 15 17 17 20 24 21 19 15 15 14
6 6 5 6 8 9 12 14 15 15 16 14 12 6 4 11 4 4 3 8 8 12 11 11 5 6 10 11 11 10 11 15 14 16 14 16 17 11 13 14 12 12 16 15 15
7 6 6 7 8 10 14 15 16 16 15 13 10 5 6 11 2 1 4 5 6 8 8 10 5 6 6 8 6 9 13 15 18 16 9 4 8 12 17 14 15 16 15 14 15
8 7 7 7 9 11 15 16 16 14 12 10 4 3 7 4 1 4 4 2 4 4 4 2 4 6 6 4 7 9 11 9 3 5 3 6 14 14 8 7 17 23 23 20 20
9 8 8 8 10 12 16 16 14 7 6 1 1 4 6 2 1 2 3 4 5 3 2 3 4 5 4 8 11 12 11 14 14 5 5 7 14 12 18 21 26 22 19 17 16
10 9 8 8 10 13 16 15 8 6 3 1 3 4 5 1 3 3 2 6 2 7 4 5 5 8 8 9 11 15 19 20 18 15 9 15 23 21 21 19 25 21 18 15 11
11 10 9 9 9 12 14 6 5 5 6 6 2 6 0 2 3 2 2 6 5 6 6 7 8 11 14 15 16 18 17 21 20 18 21 19 16 17 21 22 22 17 11 8 8
12 11 10 9 9 11 7 5 2 2 8 10 10 7 3 0 4 4 7 8 6 11 6 4 13 16 16 8 12 16 20 20 16 13 5 15 19 25 22 23 13 7 6 6 9
14 12 10 9 10 7 3 1 1 1 5 4 2 2 0 5 6 7 8 4 8 12 11 17 14 6 8 13 16 17 18 18 20 17 13 12 14 4 10 15 6 0 3 9 13
15 14 11 8 7 4 4 4 2 1 6 6 5 3 3 3 4 1 2 5 5 9 13 13 9 10 13 14 13 16 7 7 9 7 9 9 8 13 14 9 5 3 8 15 15
18 16 13 12 3 4 3 4 4 2 7 5 4 3 3 3 3 2 1 4 9 5 5 2 1 1 5 6 3 5 3 6 8 11 13 8 7 5 1 2 4 7 15 17 15
20 21 17 16 12 6 5 4 4 4 8 4 4 4 5 5 3 4 3 2 2 6 9 15 3 4 7 2 7 1 7 12 10 7 7 11 11 2 5 5 7 16 16 15 15
13 17 17 9 2 10 8 3 2 6 0 5 4 5 7 6 6 7 6 8 5 4 8 8 10 7 4 7 6 6 7 6 6 6 9 3 6 9 8 13 10 11 12 13 13
7 6 11 11 9 8 8 3 8 2 5 1 3 5 6 9 5 5 4 8 9 6 9 8 8 11 11 9 6 9 8 5 7 11 18 12 12 8 2 14 13 13 11 11 12
10 9 3 10 11 14 2 7 4 6 2 4 3 7 9 6 4 5 9 11 7 7 7 10 13 5 10 4 3 6 7 7 7 12 10 12 19 18 7 11 10 11 13 15 16
3 2 4 12 13 5 4 5 4 5 3 3 10 10 6 10 9 7 4 4 2 2 4 5 14 10 5 3 8 8 4 7 6 7 17 18 16 14 6 6 8 8 10 11 11
2 2 4 9 15 3 6 5 5 6 3 4 9 15 9 9 11 7 6 6 7 7 4 7 9 9 5 8 12 8 6 8 10 10 13 17 12 7 10 8 7 7 8 8 8
3 3 5 15 4 3 7 5 2 3 1 6 2 4 2 2 5 10 15 13 2 2 5 6 2 7 17 18 20 15 19 20 14 15 14 14 19 12 10 12 10 9 6 5 7
3 3 5 4 7 10 5 4 5 6 5 4 5 9 9 8 6 9 10 4 4 5 3 2 3 7 9 6 7 6 8 13 14 11 18 14 16 13 18 6 8 6 6 7 7
3 4 3 2 4 11 12 15 11 5 11 10 8 7 7 10 11 7 6 4 5 5 6 4 3 11 15 16 7 8 11 15 9 4 11 13 16 20 17 17 10 6 7 8 10
4 4 1 5 9 12 12 5 14 11 7 6 5 14 12 7 8 14 11 2 3 3 2 1 5 8 12 17 14 13 16 19 16 17 10 22 20 21 20 11 6 5 7 10 11
4 3 2 1 3 16 14 13 16 10 6 8 11 5 3 4 2 1 2 2 6 3 2 1 6 5 9 14 15 16 21 18 18 20 24 24 27 18 4 4 8 10 12 15 16
1 1 2 4 5 7 10 12 7 8 3 2 1 3 3 3 3 2 0 3 3 3 4 3 3 4 15 8 10 12 16 19 19 21 19 15 8 1 1 4 10 15 17 18 17
Wind_Direction
337 340 341 343 339 335 333 332 330 326 323 319 316 316 318 321 317 305 254 243 225 204 169 165 188 200 212 210 238 280 256 270 275 268 306 144 276 172 290 280 258 246 273 330 121
313 316 328 338 332 332 332 333 330 326 322 319 315 310 311 319 308 270 260 245 221 186 173 190 202 198 222 231 215 232 250 284 313 301 283 305 277 294 289 270 269 255 236 254 241
303 307 317 325 333 335 331 330 325 321 320 319 316 314 312 320 287 115 205 194 194 181 225 228 265 222 251 249 217 216 253 293 297 294 302 289 288 284 268 274 268 282 299 288 254
294 301 323 335 340 337 331 327 322 317 316 314 311 309 313 314 297 99 210 213 189 182 195 199 214 228 252 233 235 258 251 275 282 313 285 274 293 280 267 268 283 291 287 285 275
294 295 307 323 331 330 324 323 317 313 310 307 304 298 304 239 261 286 264 202 184 187 209 214 233 243 258 274 282 247 270 286 279 274 273 281 268 270 276 276 285 285 282 273 262
279 285 296 316 325 325 324 321 314 311 308 304 295 267 249 259 282 268 242 178 190 199 218 223 244 286 287 274 261 327 296 285 282 273 273 268 273 287 270 284 293 285 278 273 264
272 282 295 309 320 323 324 320 315 311 304 303 288 213 251 260 235 228 173 185 208 223 233 234 263 240 342 263 301 288 294 291 272 252 267 271 259 238 263 270 287 288 282 272 264
268 277 287 301 314 321 324 318 314 308 307 305 261 210 264 243 196 223 199 180 196 207 235 248 220 263 254 318 265 273 281 285 102 127 190 225 283 296 342 313 288 287 286 288 288
261 269 281 299 313 320 323 317 309 305 327 360 204 241 261 121 143 212 214 237 168 159 102 128 186 240 202 244 272 238 271 280 296 325 259 227 299 302 305 297 284 284 292 296 300
257 266 278 296 312 321 324 317 299 294 291 323 252 242 183 112 122 130 152 165 176 156 154 197 214 231 227 235 255 292 297 296 293 290 248 274 284 291 287 278 276 286 304 304 311
252 262 273 292 310 324 331 312 238 205 208 244 330 282 25 54 127 143 161 158 148 203 217 200 225 222 244 241 269 283 285 284 285 298 291 294 293 292 281 279 279 290 310 333 2
249 257 269 287 310 319 323 305 27 356 295 251 272 273 242 359 270 167 166 196 201 220 189 198 241 258 274 292 287 278 277 279 285 295 339 292 297 276 277 269 273 294 311 41 47
248 254 265 283 309 308 294 216 243 334 257 225 207 260 121 214 242 221 195 212 221 245 224 250 260 333 274 259 265 265 271 286 287 313 281 298 288 223 248 258 274 226 118 83 33
244 248 255 276 287 204 223 219 217 247 268 199 175 153 169 218 212 38 245 254 217 257 243 265 298 272 262 257 266 280 309 298 288 299 302 18 290 293 278 265 103 97 106 57 58
242 244 240 231 321 220 127 189 182 256 279 80 133 105 145 222 103 105 206 205 241 214 211 221 242 225 239 248 193 296 335 291 281 276 292 266 246 294 222 262 144 92 62 80 66
246 242 234 228 226 237 196 175 185 212 241 139 133 171 183 184 156 138 177 224 327 231 234 261 135 239 247 194 230 303 272 266 256 269 257 258 227 312 19 115 125 71 62 53 52
255 229 206 180 192 218 178 278 191 220 185 168 167 187 216 172 167 193 175 185 214 234 214 182 211 191 208 253 191 220 274 292 266 223 260 288 277 256 305 277 77 90 81 69 56
186 202 209 200 233 191 153 225 229 201 249 99 169 181 220 181 177 173 189 244 215 255 290 279 264 176 169 222 294 200 218 259 274 279 292 286 269 261 291 92 98 95 86 72 56
170 172 197 224 217 177 201 217 207 185 237 242 168 233 214 225 254 232 248 272 293 207 247 304 266 108 185 241 236 212 227 276 282 280 270 264 268 264 210 107 82 56 43 29 23
161 187 206 205 204 190 221 230 219 256 285 239 236 232 248 195 191 190 246 97 252 7 292 294 292 263 269 169 221 233 346 251 207 257 263 274 284 287 227 142 62 44 22 19 23
203 170 204 190 169 208 216 220 228 246 271 206 244 265 248 240 238 236 214 259 259 222 272 303 254 254 273 228 255 236 238 219 260 252 261 273 273 18 98 79 47 26 11 14 5
197 246 171 168 219 200 215 192 169 192 80 209 226 28 325 335 301 275 265 259 135 46 244 240 303 272 265 285 290 281 269 266 257 256 244 250 259 272 40 82 40 11 13 356 345
198 245 180 201 221 223 212 242 221 195 173 191 228 196 225 254 258 249 262 34 74 222 280 122 214 295 295 254 237 255 296 303 293 295 266 272 274 319 321 354 70 346 337 329 322
166 205 191 215 244 244 228 233 230 217 241 237 258 246 247 243 241 260 253 80 46 55 40 46 227 235 259 287 340 290 285 274 243 243 285 267 290 290 296 316 359 357 336 328 327
204 230 219 201 207 216 220 215 225 218 227 221 234 238 233 243 252 244 256 318 86 36 56 316 251 246 279 284 283 268 266 269 270 270 266 283 286 291 301 315 323 322 335 327 324
198 196 187 195 238 208 219 227 225 190 187 211 227 129 178 215 227 66 108 212 259 96 189 121 272 308 277 276 265 272 263 262 263 266 264 261 267 282 68 301 320 338 340 329 326
150 11 289 151 179 196 220 222 220 224 102 303 145 173 207 257 87 93 290 282 277 241 209 222 235 236 265 294 331 280 263 260 267 264 279 278 319 76 206 328 335 332 329 321 317